| time (UTC) | temp F | wind direction | speed MPH | gust MPH | rain 1hr in | rain 24hr in | rain mn in | humidity % | barometer mb |
| 20260418202544 | 59 | 37 | 2.0 | 9.0 | 0.00 | 0.01 | 0.01 | 64 | 1018.1 |
| 20260418202143 | 59 | 47 | 5.0 | 12.0 | 0.00 | 0.01 | 0.01 | 64 | 1018.1 |
| 20260418201558 | 59 | 53 | 5.0 | 18.0 | 0.00 | 0.01 | 0.01 | 64 | 1018.0 |
| 20260418201043 | 59 | 39 | 5.0 | 13.0 | 0.00 | 0.01 | 0.01 | 65 | 1018.1 |
| 20260418200541 | 59 | 53 | 6.0 | 12.0 | 0.00 | 0.01 | 0.01 | 64 | 1018.1 |
| 20260418200047 | 59 | 65 | 6.0 | 12.0 | 0.00 | 0.01 | 0.01 | 64 | 1018.1 |
| 20260418195543 | 60 | 32 | 4.0 | 12.0 | 0.00 | 0.01 | 0.01 | 65 | 1018.1 |
| 20260418195040 | 60 | 36 | 6.0 | 14.0 | 0.00 | 0.01 | 0.01 | 64 | 1018.1 |
| 20260418194537 | 60 | 347 | 6.0 | 14.0 | 0.00 | 0.01 | 0.01 | 64 | 1018.0 |
| 20260418194035 | 61 | 20 | 5.0 | 11.0 | 0.00 | 0.01 | 0.01 | 64 | 1017.9 |
| 20260418193534 | 61 | 34 | 5.0 | 14.0 | 0.00 | 0.01 | 0.01 | 64 | 1017.8 |
| 20260418193036 | 61 | 49 | 6.0 | 12.0 | 0.00 | 0.01 | 0.01 | 64 | 1017.8 |
| 20260418192533 | 61 | 44 | 5.0 | 14.0 | 0.00 | 0.01 | 0.01 | 64 | 1017.7 |
| 20260418192031 | 61 | 53 | 3.0 | 15.0 | 0.00 | 0.01 | 0.01 | 64 | 1017.7 |
| 20260418191531 | 61 | 40 | 7.0 | 15.0 | 0.00 | 0.01 | 0.01 | 64 | 1017.7 |
| 20260418191033 | 61 | 56 | 5.0 | 13.0 | 0.00 | 0.01 | 0.01 | 64 | 1017.5 |
| 20260418190529 | 61 | 57 | 6.0 | 13.0 | 0.00 | 0.01 | 0.01 | 64 | 1017.5 |
| 20260418190046 | 61 | 59 | 4.0 | 9.0 | 0.00 | 0.01 | 0.01 | 64 | 1017.5 |
| 20260418185529 | 61 | 35 | 4.0 | 12.0 | 0.00 | 0.01 | 0.01 | 64 | 1017.6 |
| 20260418185028 | 61 | 38 | 3.0 | 14.0 | 0.00 | 0.01 | 0.01 | 64 | 1017.6 |
| 20260418184528 | 61 | 53 | 6.0 | 16.0 | 0.00 | 0.01 | 0.01 | 64 | 1017.6 |
| 20260418184027 | 61 | 51 | 4.0 | 16.0 | 0.00 | 0.01 | 0.01 | 64 | 1017.6 |
| 20260418183526 | 61 | 64 | 4.0 | 12.0 | 0.00 | 0.01 | 0.01 | 65 | 1017.6 |
| 20260418183032 | 61 | 60 | 5.0 | 14.0 | 0.00 | 0.01 | 0.01 | 64 | 1017.4 |
| 20260418182525 | 61 | 46 | 4.0 | 14.0 | 0.00 | 0.01 | 0.01 | 65 | 1017.3 |
| 20260418182024 | 61 | 25 | 3.0 | 10.0 | 0.00 | 0.01 | 0.01 | 64 | 1017.3 |
| 20260418181532 | 61 | 49 | 3.0 | 11.0 | 0.00 | 0.01 | 0.01 | 65 | 1017.2 |
| 20260418181023 | 61 | 58 | 5.0 | 11.0 | 0.00 | 0.01 | 0.01 | 64 | 1017.1 |
| 20260418180522 | 61 | 47 | 2.0 | 11.0 | 0.00 | 0.01 | 0.01 | 65 | 1017.0 |
| 20260418180023 | 61 | 56 | 0.0 | 12.0 | 0.00 | 0.01 | 0.01 | 65 | 1016.9 |
| 20260418175524 | 61 | 47 | 4.0 | 12.0 | 0.00 | 0.01 | 0.01 | 64 | 1016.9 |
| 20260418175021 | 61 | 46 | 6.0 | 12.0 | 0.00 | 0.01 | 0.01 | 64 | 1016.8 |
| 20260418174520 | 61 | 45 | 3.0 | 13.0 | 0.00 | 0.01 | 0.01 | 65 | 1016.8 |
| 20260418174019 | 62 | 46 | 6.0 | 13.0 | 0.00 | 0.01 | 0.01 | 64 | 1016.6 |
| 20260418173519 | 62 | 49 | 6.0 | 12.0 | 0.00 | 0.01 | 0.01 | 64 | 1016.5 |
| 20260418173025 | 62 | 75 | 7.0 | 13.0 | 0.00 | 0.01 | 0.01 | 64 | 1016.5 |
| 20260418172518 | 61 | 338 | 5.0 | 13.0 | 0.00 | 0.01 | 0.01 | 65 | 1016.5 |
| 20260418172017 | 61 | 305 | 6.0 | 15.0 | 0.00 | 0.01 | 0.01 | 64 | 1016.6 |
| 20260418171518 | 61 | 73 | 6.0 | 15.0 | 0.00 | 0.01 | 0.01 | 64 | 1016.7 |
| 20260418171017 | 62 | 359 | 7.0 | 12.0 | 0.00 | 0.01 | 0.01 | 63 | 1016.8 |
| 20260418170517 | 62 | 37 | 4.0 | 14.0 | 0.00 | 0.01 | 0.01 | 63 | 1016.8 |
| 20260418170033 | 62 | 55 | 3.0 | 15.0 | 0.00 | 0.01 | 0.01 | 63 | 1016.7 |
| 20260418165514 | 62 | 131 | 6.0 | 17.0 | 0.00 | 0.01 | 0.01 | 63 | 1016.6 |
| 20260418165013 | 62 | 58 | 5.0 | 17.0 | 0.00 | 0.01 | 0.01 | 63 | 1016.5 |
| 20260418164512 | 62 | 79 | 5.0 | 12.0 | 0.00 | 0.01 | 0.01 | 62 | 1016.4 |
| 20260418164010 | 62 | 70 | 5.0 | 13.0 | 0.00 | 0.01 | 0.01 | 62 | 1016.2 |
| 20260418163511 | 62 | 41 | 4.0 | 10.0 | 0.00 | 0.01 | 0.01 | 62 | 1016.2 |
| 20260418163013 | 62 | 53 | 1.0 | 9.0 | 0.00 | 0.01 | 0.01 | 63 | 1016.2 |
| 20260418162510 | 61 | 274 | 3.0 | 11.0 | 0.01 | 0.01 | 0.01 | 62 | 1016.2 |
| 20260418162010 | 61 | 48 | 5.0 | 13.0 | 0.01 | 0.01 | 0.01 | 62 | 1016.1 |
| 20260418161512 | 61 | 51 | 5.0 | 13.0 | 0.01 | 0.01 | 0.01 | 62 | 1015.8 |
| 20260418161011 | 61 | 63 | 4.0 | 12.0 | 0.01 | 0.01 | 0.01 | 62 | 1015.7 |
| 20260418160507 | 61 | 55 | 5.0 | 10.0 | 0.01 | 0.01 | 0.01 | 62 | 1015.6 |
| 20260418160006 | 61 | 83 | 3.0 | 10.0 | 0.01 | 0.01 | 0.01 | 64 | 1015.5 |
| 20260418155505 | 61 | 41 | 2.0 | 9.0 | 0.01 | 0.01 | 0.01 | 64 | 1015.4 |
| 20260418155005 | 61 | 58 | 2.0 | 12.0 | 0.01 | 0.01 | 0.01 | 65 | 1015.2 |
| 20260418154504 | 61 | 37 | 3.0 | 13.0 | 0.01 | 0.01 | 0.01 | 65 | 1015.1 |
| 20260418154002 | 61 | 105 | 6.0 | 14.0 | 0.01 | 0.01 | 0.01 | 65 | 1014.9 |
| 20260418153600 | 62 | 8 | 5.0 | 14.0 | 0.01 | 0.01 | 0.01 | 65 | 1014.7 |
| 20260418153100 | 63 | 53 | 6.0 | 14.0 | 0.01 | 0.01 | 0.01 | 65 | 1014.6 |
| 20260418152559 | 65 | 64 | 5.0 | 11.0 | 0.00 | 0.00 | 0.00 | 65 | 1014.4 |
| 20260418152055 | 68 | 320 | 3.0 | 9.0 | 0.00 | 0.00 | 0.00 | 61 | 1014.3 |
| 20260418151557 | 71 | 37 | 3.0 | 10.0 | 0.00 | 0.00 | 0.00 | 63 | 1014.0 |
| 20260418151053 | 72 | 23 | 5.0 | 10.0 | 0.00 | 0.00 | 0.00 | 62 | 1013.7 |
| 20260418150552 | 72 | 37 | 4.0 | 8.0 | 0.00 | 0.00 | 0.00 | 61 | 1013.6 |
| 20260418150057 | 72 | 18 | 1.0 | 7.0 | 0.00 | 0.00 | 0.00 | 61 | 1013.4 |
| 20260418145552 | 72 | 37 | 2.0 | 7.0 | 0.00 | 0.00 | 0.00 | 61 | 1013.4 |
| 20260418145053 | 72 | 41 | 1.0 | 5.0 | 0.00 | 0.00 | 0.00 | 61 | 1013.3 |
| 20260418144550 | 72 | 53 | 1.0 | 5.0 | 0.00 | 0.00 | 0.00 | 61 | 1013.2 |
| 20260418144048 | 72 | 47 | 0.0 | 3.0 | 0.00 | 0.00 | 0.00 | 60 | 1013.0 |
| 20260418143547 | 72 | 75 | 0.0 | 4.0 | 0.00 | 0.00 | 0.00 | 60 | 1012.7 |
| 20260418143049 | 72 | 78 | 0.0 | 4.0 | 0.00 | 0.00 | 0.00 | 60 | 1012.4 |
| 20260418142548 | 72 | 91 | 0.0 | 4.0 | 0.00 | 0.00 | 0.00 | 60 | 1012.5 |
| 20260418142047 | 72 | 54 | 0.0 | 6.0 | 0.00 | 0.00 | 0.00 | 60 | 1012.5 |
| 20260418141559 | 72 | 56 | 1.0 | 6.0 | 0.00 | 0.00 | 0.00 | 60 | 1012.6 |
| 20260418141046 | 72 | 51 | 1.0 | 3.0 | 0.00 | 0.00 | 0.00 | 60 | 1012.6 |
| 20260418140545 | 72 | 51 | 0.0 | 3.0 | 0.00 | 0.00 | 0.00 | 59 | 1012.3 |
| 20260418140044 | 71 | 77 | 0.0 | 4.0 | 0.00 | 0.00 | 0.00 | 60 | 1011.9 |
| 20260418135543 | 71 | 101 | 0.0 | 4.0 | 0.00 | 0.00 | 0.00 | 59 | 1011.7 |
| 20260418135044 | 71 | 110 | 1.0 | 3.0 | 0.00 | 0.00 | 0.00 | 59 | 1011.6 |
| 20260418134549 | 71 | 85 | 1.0 | 3.0 | 0.00 | 0.00 | 0.00 | 59 | 1011.7 |
| 20260418134041 | 71 | 80 | 1.0 | 3.0 | 0.00 | 0.00 | 0.00 | 59 | 1011.7 |
| 20260418133541 | 70 | 63 | 0.0 | 3.0 | 0.00 | 0.00 | 0.00 | 59 | 1011.6 |
| 20260418133042 | 70 | 56 | 0.0 | 3.0 | 0.00 | 0.00 | 0.00 | 59 | 1011.5 |
| 20260418132541 | 70 | 81 | 0.0 | 4.0 | 0.00 | 0.00 | 0.00 | 59 | 1011.4 |
| 20260418132041 | 70 | 84 | 0.0 | 4.0 | 0.00 | 0.00 | 0.00 | 59 | 1011.4 |
| 20260418131545 | 70 | 91 | 0.0 | 3.0 | 0.00 | 0.00 | 0.00 | 59 | 1011.4 |
| 20260418131041 | 70 | 75 | 0.0 | 2.0 | 0.00 | 0.00 | 0.00 | 59 | 1011.4 |
| 20260418130539 | 70 | 96 | 0.0 | 2.0 | 0.00 | 0.00 | 0.00 | 59 | 1011.5 |
| 20260418130040 | 69 | 84 | 0.0 | 0.0 | 0.00 | 0.00 | 0.00 | 59 | 1011.5 |
| 20260418125538 | 69 | 53 | 0.0 | 0.0 | 0.00 | 0.00 | 0.00 | 59 | 1011.4 |
| 20260418125037 | 69 | 88 | 0.0 | 0.0 | 0.00 | 0.00 | 0.00 | 59 | 1011.2 |
| 20260418124536 | 69 | 78 | 0.0 | 1.0 | 0.00 | 0.00 | 0.00 | 59 | 1011.1 |
| 20260418124035 | 69 | 63 | 0.0 | 1.0 | 0.00 | 0.00 | 0.00 | 59 | 1011.0 |
| 20260418123535 | 69 | 69 | 0.0 | 1.0 | 0.00 | 0.00 | 0.00 | 60 | 1010.8 |
| 20260418123035 | 69 | 91 | 0.0 | 1.0 | 0.00 | 0.00 | 0.00 | 60 | 1010.8 |
| 20260418122536 | 69 | 80 | 0.0 | 1.0 | 0.00 | 0.00 | 0.00 | 60 | 1010.7 |
| 20260418122040 | 69 | 79 | 0.0 | 1.0 | 0.00 | 0.00 | 0.00 | 60 | 1010.7 |
| 20260418121535 | 69 | 73 | 0.0 | 1.0 | 0.00 | 0.00 | 0.00 | 60 | 1010.5 |
| 20260418121035 | 69 | 88 | 0.0 | 1.0 | 0.00 | 0.00 | 0.00 | 60 | 1010.4 |
| 20260418120534 | 69 | 82 | 0.0 | 1.0 | 0.00 | 0.00 | 0.00 | 60 | 1010.3 |
| 20260418120034 | 69 | 89 | 0.0 | 1.0 | 0.00 | 0.00 | 0.00 | 60 | 1010.2 |
| 20260418115534 | 69 | 93 | 0.0 | 2.0 | 0.00 | 0.00 | 0.00 | 60 | 1010.1 |
| 20260418115034 | 69 | 90 | 0.0 | 2.0 | 0.00 | 0.00 | 0.00 | 60 | 1010.0 |
| 20260418114535 | 69 | 91 | 0.0 | 3.0 | 0.00 | 0.00 | 0.00 | 60 | 1010.0 |
| 20260418114033 | 69 | 79 | 0.0 | 3.0 | 0.00 | 0.00 | 0.00 | 60 | 1009.9 |
| 20260418113533 | 69 | 95 | 0.0 | 2.0 | 0.00 | 0.00 | 0.00 | 60 | 1009.8 |
| 20260418113057 | 69 | 65 | 0.0 | 2.0 | 0.00 | 0.00 | 0.00 | 60 | 1009.8 |
| 20260418112532 | 68 | 84 | 0.0 | 1.0 | 0.00 | 0.00 | 0.00 | 61 | 1009.7 |
| 20260418112033 | 68 | 86 | 0.0 | 0.0 | 0.00 | 0.00 | 0.00 | 61 | 1009.7 |
| 20260418111535 | 68 | 91 | 0.0 | 1.0 | 0.00 | 0.00 | 0.00 | 61 | 1009.7 |
| 20260418111032 | 68 | 91 | 0.0 | 1.0 | 0.00 | 0.00 | 0.00 | 61 | 1009.7 |
| 20260418110533 | 68 | 91 | 0.0 | 1.0 | 0.00 | 0.00 | 0.00 | 61 | 1009.6 |
| 20260418110032 | 68 | 91 | 0.0 | 1.0 | 0.00 | 0.00 | 0.00 | 61 | 1009.6 |
| 20260418105533 | 68 | 91 | 0.0 | 1.0 | 0.00 | 0.00 | 0.00 | 61 | 1009.6 |
| 20260418105031 | 68 | 91 | 0.0 | 1.0 | 0.00 | 0.00 | 0.00 | 62 | 1009.6 |
| 20260418104531 | 68 | 91 | 0.0 | 0.0 | 0.00 | 0.00 | 0.00 | 62 | 1009.6 |
| 20260418104030 | 68 | 91 | 0.0 | 0.0 | 0.00 | 0.00 | 0.00 | 62 | 1009.6 |
| 20260418103530 | 68 | 91 | 0.0 | 0.0 | 0.00 | 0.00 | 0.00 | 63 | 1009.6 |
| 20260418103036 | 68 | 91 | 0.0 | 0.0 | 0.00 | 0.00 | 0.00 | 63 | 1009.5 |
| 20260418102530 | 68 | 91 | 0.0 | 0.0 | 0.00 | 0.00 | 0.00 | 62 | 1009.5 |
| 20260418102028 | 69 | 91 | 0.0 | 0.0 | 0.00 | 0.00 | 0.00 | 62 | 1009.5 |
| 20260418101528 | 69 | 91 | 0.0 | 2.0 | 0.00 | 0.00 | 0.00 | 62 | 1009.6 |
| 20260418101028 | 69 | 92 | 0.0 | 2.0 | 0.00 | 0.00 | 0.00 | 62 | 1009.7 |
| 20260418100527 | 69 | 102 | 0.0 | 1.0 | 0.00 | 0.00 | 0.00 | 63 | 1009.6 |
| 20260418100027 | 69 | 94 | 0.0 | 1.0 | 0.00 | 0.00 | 0.00 | 63 | 1009.7 |
| 20260418095527 | 69 | 97 | 0.0 | 1.0 | 0.00 | 0.00 | 0.00 | 63 | 1009.7 |
| 20260418095027 | 69 | 96 | 0.0 | 0.0 | 0.00 | 0.00 | 0.00 | 64 | 1009.7 |
| 20260418094526 | 69 | 96 | 0.0 | 0.0 | 0.00 | 0.00 | 0.00 | 64 | 1009.8 |
| 20260418094025 | 69 | 96 | 0.0 | 0.0 | 0.00 | 0.00 | 0.00 | 64 | 1009.7 |
| 20260418093527 | 69 | 96 | 0.0 | 0.0 | 0.00 | 0.00 | 0.00 | 64 | 1009.7 |
| 20260418093031 | 69 | 108 | 0.0 | 1.0 | 0.00 | 0.00 | 0.00 | 64 | 1009.6 |
| 20260418092525 | 69 | 109 | 0.0 | 1.0 | 0.00 | 0.00 | 0.00 | 65 | 1009.6 |
| 20260418092025 | 69 | 113 | 0.0 | 2.0 | 0.00 | 0.00 | 0.00 | 65 | 1009.6 |
| 20260418091528 | 69 | 115 | 0.0 | 2.0 | 0.00 | 0.00 | 0.00 | 65 | 1009.7 |
| 20260418091022 | 70 | 103 | 0.0 | 2.0 | 0.00 | 0.00 | 0.00 | 65 | 1009.7 |
| 20260418090521 | 70 | 113 | 0.0 | 2.0 | 0.00 | 0.00 | 0.00 | 65 | 1009.6 |
| 20260418090021 | 70 | 95 | 0.0 | 3.0 | 0.00 | 0.00 | 0.00 | 65 | 1009.7 |
| 20260418085520 | 70 | 158 | 1.0 | 4.0 | 0.00 | 0.00 | 0.00 | 65 | 1009.7 |
| 20260418085020 | 70 | 105 | 0.0 | 3.0 | 0.00 | 0.00 | 0.00 | 65 | 1009.7 |
| 20260418084520 | 70 | 110 | 1.0 | 4.0 | 0.00 | 0.00 | 0.00 | 65 | 1009.8 |
| 20260418084018 | 70 | 115 | 0.0 | 4.0 | 0.00 | 0.00 | 0.00 | 66 | 1009.9 |
| 20260418083517 | 70 | 104 | 0.0 | 3.0 | 0.00 | 0.00 | 0.00 | 66 | 1009.9 |
| 20260418083028 | 70 | 108 | 0.0 | 4.0 | 0.00 | 0.00 | 0.00 | 66 | 1010.0 |
| 20260418082515 | 70 | 113 | 0.0 | 4.0 | 0.00 | 0.00 | 0.00 | 67 | 1010.1 |
| 20260418082015 | 70 | 96 | 0.0 | 4.0 | 0.00 | 0.00 | 0.00 | 67 | 1010.0 |
| 20260418081514 | 70 | 101 | 0.0 | 4.0 | 0.00 | 0.00 | 0.00 | 67 | 1010.1 |
| 20260418081013 | 71 | 124 | 0.0 | 3.0 | 0.00 | 0.00 | 0.00 | 67 | 1010.2 |
| 20260418080512 | 71 | 116 | 1.0 | 3.0 | 0.00 | 0.00 | 0.00 | 68 | 1010.2 |
| 20260418080011 | 71 | 84 | 0.0 | 3.0 | 0.00 | 0.00 | 0.00 | 68 | 1010.3 |
| 20260418075511 | 71 | 105 | 0.0 | 5.0 | 0.00 | 0.00 | 0.00 | 68 | 1010.5 |
| 20260418075010 | 71 | 123 | 1.0 | 5.0 | 0.00 | 0.00 | 0.00 | 68 | 1010.4 |
| 20260418074512 | 71 | 171 | 0.0 | 6.0 | 0.00 | 0.00 | 0.00 | 68 | 1010.4 |
| 20260418074008 | 71 | 113 | 1.0 | 6.0 | 0.00 | 0.00 | 0.00 | 69 | 1010.5 |
| 20260418073507 | 71 | 101 | 0.0 | 3.0 | 0.00 | 0.00 | 0.00 | 69 | 1010.5 |
| 20260418073009 | 71 | 101 | 0.0 | 4.0 | 0.00 | 0.00 | 0.00 | 69 | 1010.5 |
| 20260418072508 | 71 | 111 | 1.0 | 4.0 | 0.00 | 0.00 | 0.00 | 69 | 1010.6 |
| 20260418072006 | 72 | 167 | 0.0 | 7.0 | 0.00 | 0.00 | 0.00 | 70 | 1010.7 |
| 20260418071507 | 72 | 115 | 2.0 | 7.0 | 0.00 | 0.00 | 0.00 | 70 | 1010.8 |
| 20260418071004 | 72 | 121 | 1.0 | 6.0 | 0.00 | 0.00 | 0.00 | 70 | 1010.9 |
| 20260418070506 | 72 | 115 | 2.0 | 6.0 | 0.00 | 0.00 | 0.00 | 70 | 1011.0 |
| 20260418070006 | 72 | 140 | 3.0 | 6.0 | 0.00 | 0.00 | 0.00 | 70 | 1010.9 |
| 20260418065506 | 72 | 141 | 0.0 | 6.0 | 0.00 | 0.00 | 0.00 | 70 | 1010.9 |
| 20260418065003 | 72 | 118 | 1.0 | 6.0 | 0.00 | 0.00 | 0.00 | 70 | 1010.9 |
| 20260418064503 | 72 | 129 | 1.0 | 7.0 | 0.00 | 0.00 | 0.00 | 70 | 1010.9 |
| 20260418064002 | 72 | 125 | 2.0 | 7.0 | 0.00 | 0.00 | 0.00 | 70 | 1010.9 |
| 20260418063502 | 72 | 92 | 1.0 | 5.0 | 0.00 | 0.00 | 0.00 | 70 | 1010.9 |
| 20260418063002 | 72 | 111 | 1.0 | 7.0 | 0.00 | 0.00 | 0.00 | 70 | 1010.9 |
| 20260418062601 | 73 | 109 | 0.0 | 7.0 | 0.00 | 0.00 | 0.00 | 70 | 1011.0 |
| 20260418062100 | 73 | 145 | 2.0 | 7.0 | 0.00 | 0.00 | 0.00 | 70 | 1010.9 |
| 20260418061613 | 73 | 103 | 3.0 | 8.0 | 0.00 | 0.00 | 0.00 | 70 | 1010.8 |
| 20260418061101 | 73 | 110 | 2.0 | 8.0 | 0.00 | 0.00 | 0.00 | 70 | 1010.7 |
| 20260418060558 | 73 | 130 | 4.0 | 8.0 | 0.00 | 0.00 | 0.00 | 71 | 1010.7 |
| 20260418060108 | 73 | 110 | 3.0 | 8.0 | 0.00 | 0.00 | 0.00 | 71 | 1010.8 |
| 20260418055558 | 73 | 134 | 2.0 | 8.0 | 0.00 | 0.00 | 0.00 | 71 | 1010.8 |
| 20260418055057 | 73 | 147 | 3.0 | 7.0 | 0.00 | 0.00 | 0.00 | 71 | 1010.8 |
| 20260418054637 | 73 | 96 | 2.0 | 9.0 | 0.00 | 0.00 | 0.00 | 71 | 1010.8 |
| 20260418054055 | 74 | 139 | 3.0 | 10.0 | 0.00 | 0.00 | 0.00 | 71 | 1010.8 |
| 20260418053555 | 74 | 142 | 3.0 | 10.0 | 0.00 | 0.00 | 0.00 | 71 | 1010.8 |
| 20260418053101 | 74 | 113 | 3.0 | 7.0 | 0.00 | 0.00 | 0.00 | 71 | 1010.8 |
| 20260418052555 | 74 | 117 | 2.0 | 9.0 | 0.00 | 0.00 | 0.00 | 70 | 1010.8 |
| 20260418052054 | 74 | 139 | 3.0 | 10.0 | 0.00 | 0.00 | 0.00 | 70 | 1010.8 |
| 20260418051601 | 74 | 94 | 5.0 | 10.0 | 0.00 | 0.00 | 0.00 | 70 | 1010.9 |
| 20260418051049 | 74 | 111 | 3.0 | 9.0 | 0.00 | 0.00 | 0.00 | 70 | 1011.0 |
| 20260418050551 | 75 | 103 | 2.0 | 10.0 | 0.00 | 0.00 | 0.00 | 70 | 1011.0 |
| 20260418050048 | 75 | 141 | 3.0 | 9.0 | 0.00 | 0.00 | 0.00 | 70 | 1010.9 |
| 20260418045547 | 75 | 156 | 3.0 | 9.0 | 0.00 | 0.00 | 0.00 | 70 | 1010.9 |
| 20260418045048 | 75 | 162 | 2.0 | 9.0 | 0.00 | 0.00 | 0.00 | 70 | 1010.9 |
| 20260418044547 | 75 | 148 | 3.0 | 9.0 | 0.00 | 0.00 | 0.00 | 70 | 1010.7 |
| 20260418044048 | 75 | 117 | 3.0 | 9.0 | 0.00 | 0.00 | 0.00 | 70 | 1010.7 |
| 20260418043548 | 75 | 116 | 3.0 | 9.0 | 0.00 | 0.00 | 0.00 | 70 | 1010.8 |
| 20260418043100 | 75 | 144 | 3.0 | 8.0 | 0.00 | 0.00 | 0.00 | 69 | 1010.8 |
| 20260418042548 | 76 | 99 | 3.0 | 9.0 | 0.00 | 0.00 | 0.00 | 69 | 1010.9 |
| 20260418042047 | 76 | 79 | 2.0 | 9.0 | 0.00 | 0.00 | 0.00 | 69 | 1010.8 |
| 20260418041548 | 76 | 97 | 3.0 | 8.0 | 0.00 | 0.00 | 0.00 | 69 | 1010.8 |
| 20260418041047 | 76 | 139 | 4.0 | 9.0 | 0.00 | 0.00 | 0.00 | 69 | 1010.9 |
| 20260418040546 | 76 | 134 | 3.0 | 9.0 | 0.00 | 0.00 | 0.00 | 69 | 1010.9 |
| 20260418040046 | 76 | 136 | 2.0 | 8.0 | 0.00 | 0.00 | 0.00 | 69 | 1010.8 |
| 20260418035545 | 76 | 140 | 3.0 | 8.0 | 0.00 | 0.00 | 0.00 | 68 | 1010.9 |
| 20260418035045 | 76 | 121 | 2.0 | 8.0 | 0.00 | 0.00 | 0.00 | 68 | 1010.9 |
| 20260418034546 | 76 | 104 | 2.0 | 8.0 | 0.00 | 0.00 | 0.00 | 68 | 1010.7 |
| 20260418034044 | 77 | 129 | 2.0 | 8.0 | 0.00 | 0.00 | 0.00 | 68 | 1010.6 |
| 20260418033544 | 77 | 91 | 3.0 | 8.0 | 0.00 | 0.00 | 0.00 | 68 | 1010.5 |
| 20260418033053 | 77 | 103 | 3.0 | 10.0 | 0.00 | 0.00 | 0.00 | 68 | 1010.4 |
| 20260418032550 | 77 | 125 | 4.0 | 10.0 | 0.00 | 0.00 | 0.00 | 68 | 1010.4 |
| 20260418032044 | 77 | 98 | 4.0 | 9.0 | 0.00 | 0.00 | 0.00 | 67 | 1010.5 |
| 20260418031545 | 77 | 105 | 4.0 | 13.0 | 0.00 | 0.00 | 0.00 | 67 | 1010.5 |
| 20260418031044 | 78 | 117 | 5.0 | 13.0 | 0.00 | 0.00 | 0.00 | 67 | 1010.3 |
| 20260418030543 | 78 | 156 | 3.0 | 9.0 | 0.00 | 0.00 | 0.00 | 67 | 1010.3 |
| 20260418030059 | 78 | 95 | 5.0 | 13.0 | 0.00 | 0.00 | 0.00 | 67 | 1010.2 |
| 20260418025543 | 78 | 110 | 4.0 | 15.0 | 0.00 | 0.00 | 0.00 | 66 | 1010.1 |
| 20260418025043 | 78 | 158 | 6.0 | 15.0 | 0.00 | 0.00 | 0.00 | 66 | 1010.0 |
| 20260418024544 | 78 | 155 | 4.0 | 12.0 | 0.00 | 0.00 | 0.00 | 66 | 1009.8 |
| 20260418024043 | 79 | 162 | 6.0 | 12.0 | 0.00 | 0.00 | 0.00 | 66 | 1010.0 |
| 20260418023544 | 79 | 105 | 4.0 | 12.0 | 0.00 | 0.00 | 0.00 | 65 | 1009.7 |
| 20260418023048 | 79 | 136 | 3.0 | 10.0 | 0.00 | 0.00 | 0.00 | 65 | 1009.4 |
| 20260418022542 | 79 | 143 | 3.0 | 14.0 | 0.00 | 0.00 | 0.00 | 65 | 1009.3 |
| 20260418022041 | 79 | 132 | 6.0 | 14.0 | 0.00 | 0.00 | 0.00 | 65 | 1009.2 |
| 20260418021541 | 80 | 110 | 4.0 | 14.0 | 0.00 | 0.00 | 0.00 | 65 | 1009.0 |
| 20260418021041 | 80 | 136 | 7.0 | 14.0 | 0.00 | 0.00 | 0.00 | 64 | 1008.9 |
| 20260418020541 | 80 | 108 | 5.0 | 13.0 | 0.00 | 0.00 | 0.00 | 64 | 1008.8 |
| 20260418020044 | 80 | 137 | 5.0 | 15.0 | 0.00 | 0.00 | 0.00 | 64 | 1008.4 |
| 20260418015541 | 80 | 236 | 6.0 | 17.0 | 0.00 | 0.00 | 0.00 | 63 | 1008.3 |
| 20260418015041 | 81 | 77 | 7.0 | 17.0 | 0.00 | 0.00 | 0.00 | 63 | 1008.4 |
| 20260418014542 | 81 | 233 | 7.0 | 13.0 | 0.00 | 0.00 | 0.00 | 63 | 1008.5 |
| 20260418014040 | 81 | 247 | 4.0 | 13.0 | 0.00 | 0.00 | 0.00 | 62 | 1008.6 |
| 20260418013540 | 82 | 118 | 5.0 | 13.0 | 0.00 | 0.00 | 0.00 | 62 | 1008.6 |
| 20260418013040 | 82 | 123 | 6.0 | 14.0 | 0.00 | 0.00 | 0.00 | 61 | 1008.6 |
| 20260418012539 | 82 | 143 | 4.0 | 14.0 | 0.00 | 0.00 | 0.00 | 61 | 1008.5 |
| 20260418012039 | 83 | 102 | 4.0 | 10.0 | 0.00 | 0.00 | 0.00 | 60 | 1008.5 |
| 20260418011539 | 83 | 88 | 4.0 | 14.0 | 0.00 | 0.00 | 0.00 | 60 | 1008.6 |
| 20260418011041 | 83 | 62 | 7.0 | 14.0 | 0.00 | 0.00 | 0.00 | 59 | 1008.5 |
| 20260418010539 | 83 | 118 | 5.0 | 13.0 | 0.00 | 0.00 | 0.00 | 59 | 1008.3 |
| 20260418010041 | 84 | 108 | 7.0 | 16.0 | 0.00 | 0.00 | 0.00 | 58 | 1008.2 |
| 20260418005539 | 84 | 121 | 6.0 | 19.0 | 0.00 | 0.00 | 0.00 | 58 | 1008.0 |
| 20260418005039 | 85 | 129 | 6.0 | 19.0 | 0.00 | 0.00 | 0.00 | 57 | 1008.0 |
| 20260418004604 | 85 | 115 | 7.0 | 17.0 | 0.00 | 0.00 | 0.00 | 55 | 1007.9 |
| 20260418004037 | 87 | 120 | 5.0 | 17.0 | 0.00 | 0.00 | 0.00 | 51 | 1007.7 |
| 20260418003538 | 87 | 139 | 4.0 | 11.0 | 0.00 | 0.00 | 0.00 | 48 | 1007.5 |
| 20260418003037 | 87 | 142 | 5.0 | 12.0 | 0.00 | 0.00 | 0.00 | 48 | 1007.5 |
| 20260418002537 | 87 | 120 | 6.0 | 15.0 | 0.00 | 0.00 | 0.00 | 48 | 1007.5 |
| 20260418002037 | 88 | 107 | 5.0 | 16.0 | 0.00 | 0.00 | 0.00 | 48 | 1007.5 |
| 20260418001543 | 88 | 128 | 8.0 | 16.0 | 0.00 | 0.00 | 0.00 | 48 | 1007.5 |
| 20260418001041 | 88 | 114 | 5.0 | 13.0 | 0.00 | 0.00 | 0.00 | 48 | 1007.5 |
| 20260418000537 | 88 | 126 | 6.0 | 13.0 | 0.00 | 0.00 | 0.00 | 48 | 1007.5 |
| 20260418000040 | 89 | 133 | 6.0 | 12.0 | 0.00 | 0.00 | 0.00 | 47 | 1007.5 |
| 20260417235537 | 89 | 146 | 3.0 | 12.0 | 0.00 | 0.00 | 0.00 | 47 | 1007.5 |
| 20260417235037 | 89 | 131 | 4.0 | 13.0 | 0.00 | 0.00 | 0.00 | 47 | 1007.5 |
| 20260417234535 | 89 | 146 | 6.0 | 14.0 | 0.00 | 0.00 | 0.00 | 47 | 1007.3 |
| 20260417234036 | 89 | 143 | 7.0 | 13.0 | 0.00 | 0.00 | 0.00 | 47 | 1007.3 |
| 20260417233535 | 90 | 147 | 5.0 | 16.0 | 0.00 | 0.00 | 0.00 | 46 | 1007.3 |
| 20260417233038 | 90 | 154 | 5.0 | 12.0 | 0.00 | 0.00 | 0.00 | 46 | 1007.2 |
| 20260417232535 | 90 | 146 | 3.0 | 12.0 | 0.00 | 0.00 | 0.00 | 46 | 1007.2 |
| 20260417232038 | 90 | 128 | 4.0 | 9.0 | 0.00 | 0.00 | 0.00 | 45 | 1007.1 |
| 20260417231535 | 90 | 141 | 5.0 | 14.0 | 0.00 | 0.00 | 0.00 | 45 | 1007.0 |
| 20260417231035 | 90 | 150 | 2.0 | 14.0 | 0.00 | 0.00 | 0.00 | 46 | 1007.0 |
| 20260417230533 | 91 | 139 | 5.0 | 13.0 | 0.00 | 0.00 | 0.00 | 45 | 1007.1 |
| 20260417230034 | 90 | 212 | 3.0 | 13.0 | 0.00 | 0.00 | 0.00 | 45 | 1007.1 |
| 20260417225534 | 90 | 100 | 3.0 | 10.0 | 0.00 | 0.00 | 0.00 | 46 | 1007.2 |
| 20260417225034 | 90 | 162 | 5.0 | 14.0 | 0.00 | 0.00 | 0.00 | 46 | 1007.2 |
| 20260417224532 | 91 | 145 | 6.0 | 13.0 | 0.00 | 0.00 | 0.00 | 45 | 1007.2 |
| 20260417224031 | 91 | 148 | 4.0 | 13.0 | 0.00 | 0.00 | 0.00 | 45 | 1007.1 |
| 20260417223531 | 91 | 131 | 7.0 | 13.0 | 0.00 | 0.00 | 0.00 | 45 | 1007.3 |
| 20260417223030 | 91 | 162 | 4.0 | 13.0 | 0.00 | 0.00 | 0.00 | 45 | 1007.3 |
| 20260417222530 | 91 | 134 | 6.0 | 13.0 | 0.00 | 0.00 | 0.00 | 45 | 1007.5 |
| 20260417222028 | 92 | 193 | 4.0 | 12.0 | 0.00 | 0.00 | 0.00 | 44 | 1007.6 |
| 20260417221527 | 91 | 126 | 4.0 | 13.0 | 0.00 | 0.00 | 0.00 | 46 | 1007.7 |
| 20260417221027 | 91 | 130 | 3.0 | 13.0 | 0.00 | 0.00 | 0.00 | 45 | 1007.7 |
| 20260417220527 | 91 | 119 | 3.0 | 14.0 | 0.00 | 0.00 | 0.00 | 46 | 1007.6 |
| 20260417220029 | 91 | 139 | 5.0 | 14.0 | 0.00 | 0.00 | 0.00 | 46 | 1007.6 |
| 20260417215531 | 92 | 104 | 7.0 | 13.0 | 0.00 | 0.00 | 0.00 | 45 | 1007.6 |
| 20260417215025 | 91 | 285 | 5.0 | 13.0 | 0.00 | 0.00 | 0.00 | 46 | 1007.6 |
| 20260417214525 | 91 | 175 | 3.0 | 11.0 | 0.00 | 0.00 | 0.00 | 46 | 1007.6 |
| 20260417214023 | 91 | 122 | 4.0 | 11.0 | 0.00 | 0.00 | 0.00 | 45 | 1007.7 |
| 20260417213522 | 91 | 121 | 3.0 | 9.0 | 0.00 | 0.00 | 0.00 | 47 | 1007.7 |
| 20260417213030 | 90 | 147 | 3.0 | 14.0 | 0.00 | 0.00 | 0.00 | 47 | 1007.9 |
| 20260417212520 | 90 | 126 | 7.0 | 15.0 | 0.00 | 0.00 | 0.00 | 47 | 1008.1 |
| 20260417212019 | 90 | 117 | 5.0 | 15.0 | 0.00 | 0.00 | 0.00 | 47 | 1008.1 |
| 20260417211526 | 90 | 122 | 5.0 | 12.0 | 0.00 | 0.00 | 0.00 | 48 | 1008.3 |
| 20260417211018 | 90 | 153 | 4.0 | 12.0 | 0.00 | 0.00 | 0.00 | 48 | 1008.6 |
| 20260417210517 | 90 | 266 | 3.0 | 9.0 | 0.00 | 0.00 | 0.00 | 48 | 1008.7 |
| 20260417210016 | 90 | 150 | 5.0 | 9.0 | 0.00 | 0.00 | 0.00 | 47 | 1008.7 |
| 20260417205514 | 90 | 250 | 4.0 | 12.0 | 0.00 | 0.00 | 0.00 | 47 | 1008.8 |
| 20260417205013 | 90 | 68 | 4.0 | 10.0 | 0.00 | 0.00 | 0.00 | 48 | 1009.0 |
| 20260417204519 | 89 | 115 | 2.0 | 11.0 | 0.00 | 0.00 | 0.00 | 50 | 1009.1 |
| 20260417204011 | 89 | 101 | 4.0 | 11.0 | 0.00 | 0.00 | 0.00 | 49 | 1009.3 |
| 20260417203511 | 89 | 92 | 4.0 | 14.0 | 0.00 | 0.00 | 0.00 | 50 | 1009.4 |
| 20260417203011 | 89 | 261 | 4.0 | 14.0 | 0.00 | 0.00 | 0.00 | 49 | 1009.5 |